Regional Weather Roundup
Issued by NWS Green Bay, WI

Home | Current Version | Previous Version | Text Only | Print | Product List | Glossary On
Versions: 1 2 3 4 5 6 7 8 9 10 11 12 13 14 15 16 17 18 19 20 21 22 23 24 25 26 27 28 29 30 31 32 33 34 35 36 37 38 39 40 41 42 43 44 45 46 47 48 49 50
000
ASUS43 KGRB 311111
RWRGRB

NORTH-CENTRAL AND NORTHEAST WISCONSIN REGIONAL WEATHER ROUNDUP
NATIONAL WEATHER SERVICE GREEN BAY WI
600 AM CDT TUE MAY 31 2016

WIZ005-009-010>012-018-019-311200-
NORTH CENTRAL WISCONSIN

CITY           SKY/WX    TMP DP  RH WIND       PRES   REMARKS
IRONWOOD       CLOUDY    52  46  82 E13       30.00F
MANITOWISH WTR NOT AVBL
ARBOR VITAE    PTCLDY    55  50  85 E10       30.04S
EAGLE RIVER      N/A     50  44  80 E9        30.06S
LAND O LAKES   CLOUDY    48  43  82 E7        30.08S
RHINELANDER    CLOUDY    52  47  83 E10       30.06R
PHILLIPS       CLOUDY    57  50  79 E6        29.98F
ANTIGO         CLOUDY    50  47  89 E16       30.04F
TOMAHAWK       CLOUDY    56  49  78 E6        30.03S
MERRILL        CLOUDY    56  51  86 E10       30.01F
$$

WIZ013-073-311200-
NORTHEAST WISCONSIN

CITY           SKY/WX    TMP DP  RH WIND       PRES   REMARKS
IRON MOUNTAIN  CLOUDY    47  42  83 CALM      30.10R
MARINETTE      CLOUDY    50  45  81 NE7       30.10R
OCONTO         PTCLDY    51  51  97 N5        30.09R
$$

WIZ017-030-035>037-045-311200-
CENTRAL WISCONSIN

CITY           SKY/WX    TMP DP  RH WIND       PRES   REMARKS
MEDFORD        MOCLDY    59  56  88 E10       29.95R
WAUSAU         MOCLDY    58  50  75 E9        30.01R
MOSINEE        PTCLDY    55  54  94 E7        30.03R
MARSHFIELD     CLOUDY    62  54  74 E9        29.96S
WISC RAPIDS    CLOUDY    62  54  74 E8        30.00R
STEVENS POINT  MOCLDY    55  52  89 NE9       30.02R
WAUPACA        CLOUDY    60  58  92 NE10      30.03R
SHAWANO        CLOUDY    57  49  76 NE13      30.08R
CLINTONVILLE   CLOUDY    54  48  82 E8        30.05S
WAUTOMA        CLOUDY   N/A N/A N/A NE6       30.00S
$$

WIZ038-039-048-051-311200-
FOX VALLEY

CITY           SKY/WX    TMP DP  RH WIND       PRES   REMARKS
NWS GREEN BAY  PTCLDY    57  53  86 NE12      30.07R
APPLETON       MOCLDY    57  52  82 E13       30.03S
OSHKOSH        CLOUDY    64  59  83 NE7       30.02R
FOND DU LAC    CLOUDY    64  58  80 NE5       30.02R
$$

WIZ022-050-052-311200-
EAST CENTRAL WISCONSIN

CITY           SKY/WX    TMP DP  RH WIND       PRES   REMARKS
EPHRAIM        FAIR      50  45  83 NE7       30.08R
STURGEON BAY   NOT AVBL
MANITOWOC      CLEAR     53  48  83 N8        30.08R
SHEBOYGAN      PTCLDY    57  53  86 NE10      30.05S
$$

LMZ563-521-522-541>543-311200-
LAKESHORE

STATION/POSITION TIME  TEMP    WIND        PRES    VSBY  WAVE
                       AIR SEA DIR/SP/G                  HT/PER
                 (UTC) (F)     (DEG/KT/KT) (MB)    (MI)  (FT/S)
SHEBOYGAN LKSHOR 1100   55     360/ 17/ 18 1018.0R
KEWAUNEE LKSHORE 1000   51      20/ 12/ 18 1016.7R
NORTHPORT PIER   1000   52      10/  6/  8 1018.3R
N MID LAKE BUOY  1050   49 48   30/ 12/ 14 1018.4R         2/ 3
CHAMBERS ISLAND  1000   52      20/ 11/ 14 1018.6R
MENOMINEE LKSHOR 1000   53      20/ 17/ 19 1017.5R
$$




USA.gov is the U.S. government's official web portal to all federal, state and local government web resources and services.